Zurück zum Katalog

STARLINK-37843

AktivKommunikationSSO
NORAD 69501·PAYLOAD·🇺🇸 United States

Gestartet Jun 11, 2026 von Vandenberg Space Force Base

Loading…

Nächste Überflüge (nächste 24 Stunden)

TLE

AktuellSource: CelesTrak SupGP

Epoche: Sep 15, 2026, 03:19 UTC

1 69501C 26131Z   26258.13868056 -.00050665  00000+0 -15728-2 0  2580
2 69501  97.2830 279.1533 0001282  93.3376 151.7852 15.33464068    16

Verfolge STARLINK-37843 in Echtzeit mit AllMySat

Download on the App Store